HAZ1252 ZPPP-ZSHC

Flight info

Callsign HAZ1252
Flight time N/A
Altitude 35100
Route NODIB W137 LPS A581 IDGAG W80 XSH DCT JDZ DCT TXN G204 OREXA
Aircraft B77W/H-SDE1E2E3FGHIJ2J3J4J5M1RWXY/LB1D1

Departure

Time N/A
Airport Kunming Changshui International Airport (ZPPP)

Arrival

Time 2026-05-04 14:43
Airport Hangzhou Xiaoshan International Airport (ZSHC)
Time Latitude Longitude Altitude Speed Heading
2026-05-04 14:08 29.78287 117.65656 27735 ft 539 kts 97°
2026-05-04 14:08 29.77974 117.69932 27145 ft 535 kts 97°
2026-05-04 14:08 29.77662 117.74180 26565 ft 529 kts 96°
2026-05-04 14:09 29.77061 117.82355 25364 ft 497 kts 96°
2026-05-04 14:09 29.76771 117.86265 24791 ft 483 kts 96°
2026-05-04 14:10 29.76210 117.93750 23685 ft 457 kts 96°
2026-05-04 14:10 29.75939 117.97351 23034 ft 447 kts 96°
2026-05-04 14:10 29.75671 118.00884 22411 ft 442 kts 96°
2026-05-04 14:10 29.75401 118.04427 21820 ft 447 kts 96°
2026-05-04 14:11 29.75128 118.07998 21228 ft 448 kts 96°
2026-05-04 14:11 29.74596 118.14975 20811 ft 438 kts 96°
2026-05-04 14:11 29.74327 118.18465 20815 ft 438 kts 96°
2026-05-04 14:12 29.74060 118.21943 20805 ft 436 kts 96°
2026-05-04 14:12 29.73791 118.25413 20798 ft 434 kts 96°
2026-05-04 14:12 29.73194 118.32313 20717 ft 432 kts 97°
2026-05-04 14:13 29.72880 118.35736 20389 ft 429 kts 97°
2026-05-04 14:13 29.72566 118.39144 20129 ft 427 kts 97°
2026-05-04 14:13 29.72255 118.42538 19884 ft 426 kts 97°
2026-05-04 14:13 29.71946 118.45929 19632 ft 426 kts 97°
2026-05-04 14:14 29.71638 118.49318 19351 ft 426 kts 96°
2026-05-04 14:14 29.71024 118.56070 18799 ft 423 kts 96°
2026-05-04 14:14 29.70718 118.59423 18520 ft 421 kts 96°
2026-05-04 14:15 29.70108 118.66081 17916 ft 416 kts 96°
2026-05-04 14:15 29.69507 118.72619 17284 ft 405 kts 95°
2026-05-04 14:16 29.69892 118.78909 16861 ft 387 kts 74°
2026-05-04 14:16 29.70718 118.81840 16808 ft 387 kts 66°
2026-05-04 14:17 29.72784 118.87685 16419 ft 396 kts 66°
2026-05-04 14:17 29.73808 118.90598 16176 ft 391 kts 66°
2026-05-04 14:17 29.75812 118.96337 15678 ft 382 kts 67°
2026-05-04 14:18 29.76790 118.99159 15443 ft 378 kts 67°
2026-05-04 14:18 29.78713 119.04718 14997 ft 370 kts 67°
2026-05-04 14:19 29.80597 119.10177 14946 ft 373 kts 67°
2026-05-04 14:19 29.81569 119.13001 14919 ft 375 kts 67°
2026-05-04 14:19 29.82531 119.15791 14919 ft 375 kts 68°
2026-05-04 14:19 29.83478 119.18543 14912 ft 376 kts 67°
2026-05-04 14:20 29.84439 119.21340 14909 ft 375 kts 68°
2026-05-04 14:20 29.85397 119.24130 14903 ft 375 kts 68°
2026-05-04 14:20 29.86361 119.26939 14706 ft 377 kts 68°
2026-05-04 14:21 29.88268 119.32505 14237 ft 370 kts 68°
2026-05-04 14:21 29.89206 119.35245 14020 ft 364 kts 68°
2026-05-04 14:21 29.90123 119.37933 13980 ft 358 kts 68°
2026-05-04 14:21 29.91036 119.40606 13922 ft 360 kts 68°
2026-05-04 14:22 29.91960 119.43297 13913 ft 363 kts 68°
2026-05-04 14:22 29.92894 119.46026 13640 ft 368 kts 68°
2026-05-04 14:22 29.93828 119.48768 13319 ft 365 kts 68°
2026-05-04 14:22 29.94748 119.51474 12996 ft 360 kts 68°
2026-05-04 14:23 29.96543 119.56758 12378 ft 349 kts 68°
2026-05-04 14:23 29.97422 119.59345 12073 ft 345 kts 68°
2026-05-04 14:23 29.98288 119.61895 11967 ft 339 kts 68°
2026-05-04 14:24 29.99156 119.64446 11930 ft 345 kts 68°
2026-05-04 14:24 30.00037 119.67042 11921 ft 349 kts 68°
2026-05-04 14:24 30.00923 119.69658 11906 ft 349 kts 68°
2026-05-04 14:24 30.01803 119.72261 11906 ft 348 kts 68°
2026-05-04 14:25 30.02384 119.73980 11909 ft 347 kts 68°
2026-05-04 14:25 30.04584 119.79974 11882 ft 346 kts 62°
2026-05-04 14:25 30.05315 119.81597 11907 ft 345 kts 61°
2026-05-04 14:26 30.06452 119.84047 11841 ft 348 kts 61°
2026-05-04 14:26 30.07592 119.86496 11582 ft 343 kts 61°
2026-05-04 14:26 30.08704 119.88905 11368 ft 337 kts 61°
2026-05-04 14:26 30.09781 119.91268 11152 ft 329 kts 62°
2026-05-04 14:27 30.10828 119.93580 10999 ft 321 kts 62°
2026-05-04 14:27 30.11832 119.95805 10832 ft 313 kts 62°
2026-05-04 14:27 30.12837 119.98040 10675 ft 305 kts 62°
2026-05-04 14:27 30.13800 120.00184 10501 ft 297 kts 62°
2026-05-04 14:28 30.14738 120.02275 10351 ft 289 kts 62°
2026-05-04 14:28 30.15654 120.04319 10223 ft 284 kts 61°
2026-05-04 14:28 30.16534 120.06278 10034 ft 285 kts 62°
2026-05-04 14:28 30.17447 120.08318 9801 ft 285 kts 62°
2026-05-04 14:29 30.19267 120.12387 9295 ft 284 kts 62°
2026-05-04 14:29 30.21057 120.16393 8877 ft 278 kts 62°
2026-05-04 14:30 30.21941 120.18381 8658 ft 277 kts 62°
2026-05-04 14:30 30.22818 120.20347 8433 ft 275 kts 62°
2026-05-04 14:30 30.24549 120.24234 8005 ft 271 kts 62°
2026-05-04 14:31 30.25410 120.26169 7761 ft 271 kts 62°
2026-05-04 14:31 30.27121 120.30024 7327 ft 268 kts 62°
2026-05-04 14:32 30.28803 120.33816 6923 ft 262 kts 62°
2026-05-04 14:32 30.29634 120.35687 6730 ft 261 kts 62°
2026-05-04 14:32 30.30462 120.37555 6537 ft 261 kts 62°
2026-05-04 14:32 30.31281 120.39404 6333 ft 263 kts 62°
2026-05-04 14:33 30.32122 120.41301 6109 ft 266 kts 62°
2026-05-04 14:33 30.32968 120.43211 5891 ft 267 kts 62°
2026-05-04 14:33 30.33814 120.45117 5682 ft 267 kts 62°
2026-05-04 14:33 30.34667 120.47037 5469 ft 268 kts 62°
2026-05-04 14:34 30.35511 120.48953 5331 ft 266 kts 62°
2026-05-04 14:34 30.36348 120.50856 5174 ft 264 kts 62°
2026-05-04 14:34 30.37175 120.52736 5023 ft 260 kts 63°
2026-05-04 14:34 30.37992 120.54584 4849 ft 255 kts 63°
2026-05-04 14:35 30.38788 120.56387 4676 ft 249 kts 63°
2026-05-04 14:35 30.39565 120.58145 4531 ft 240 kts 63°
2026-05-04 14:35 30.40313 120.59840 4368 ft 232 kts 63°
2026-05-04 14:35 30.41039 120.61493 4281 ft 230 kts 63°
2026-05-04 14:36 30.41679 120.63184 4131 ft 229 kts 81°
2026-05-04 14:36 30.41537 120.64977 3991 ft 225 kts 116°
2026-05-04 14:36 30.40575 120.66359 3880 ft 220 kts 146°
2026-05-04 14:36 30.39274 120.67251 3825 ft 217 kts 154°
2026-05-04 14:37 30.37936 120.68020 3692 ft 211 kts 161°
2026-05-04 14:37 30.36533 120.68144 3658 ft 202 kts 198°
2026-05-04 14:37 30.35391 120.67227 3595 ft 206 kts 234°
2026-05-04 14:37 30.34737 120.65746 3579 ft 209 kts 244°
2026-05-04 14:38 30.34108 120.64224 3546 ft 209 kts 242°
2026-05-04 14:38 30.33466 120.62740 3431 ft 201 kts 242°
2026-05-04 14:38 30.32858 120.61347 3272 ft 188 kts 241°
2026-05-04 14:38 30.32280 120.60027 3088 ft 182 kts 241°
2026-05-04 14:39 30.31702 120.58714 2825 ft 182 kts 241°
2026-05-04 14:39 30.31129 120.57426 2563 ft 180 kts 240°
2026-05-04 14:39 30.30577 120.56178 2366 ft 168 kts 240°
2026-05-04 14:40 30.29555 120.53814 1949 ft 165 kts 240°
2026-05-04 14:40 30.29040 120.52665 1686 ft 153 kts 240°
2026-05-04 14:40 30.28559 120.51583 1503 ft 151 kts 239°
2026-05-04 14:40 30.28087 120.50514 1285 ft 147 kts 239°
2026-05-04 14:41 30.27628 120.49467 1088 ft 145 kts 239°
2026-05-04 14:41 30.27166 120.48424 940 ft 149 kts 239°
2026-05-04 14:41 30.26222 120.46279 523 ft 150 kts 242°
2026-05-04 14:42 30.25275 120.44128 132 ft 152 kts 242°
2026-05-04 14:42 30.24799 120.43049 37 ft 139 kts 244°
2026-05-04 14:42 30.24446 120.42243 37 ft 86 kts 243°
2026-05-04 14:43 30.24255 120.41898 37 ft 26 kts 220°
2026-05-04 14:43 30.24136 120.41795 37 ft 19 kts 216°
2026-05-04 14:43 30.24047 120.41719 37 ft 16 kts 216°
2026-05-04 14:43 30.23974 120.41707 37 ft 11 kts 158°
2026-05-04 14:44 30.23963 120.41714 37 ft 2 kts 150°
2026-05-04 14:44 30.23945 120.41751 37 ft 9 kts 96°
2026-05-04 14:44 30.23972 120.41832 37 ft 11 kts 63°
2026-05-04 14:44 30.24009 120.41915 37 ft 11 kts 63°
2026-05-04 14:45 30.24045 120.41997 37 ft 11 kts 63°
2026-05-04 14:45 30.24081 120.42077 37 ft 11 kts 63°
2026-05-04 14:45 30.24089 120.42147 37 ft 8 kts 118°
2026-05-04 14:45 30.24038 120.42176 37 ft 9 kts 177°
2026-05-04 14:46 30.23979 120.42192 37 ft 9 kts 154°
2026-05-04 14:46 30.23930 120.42221 37 ft 8 kts 153°
2026-05-04 14:46 30.23895 120.42249 37 ft 5 kts 126°
2026-05-04 14:46 30.23891 120.42287 37 ft 5 kts 85°
2026-05-04 14:47 30.23896 120.42330 37 ft 6 kts 82°
2026-05-04 14:47 30.23898 120.42353 37 ft 0 kts 83°